Date String (YYYY-MM-DD hh:mm:ss) UTC,Instrument flags,Ambient pressure (hPa),Sample flow (lpm),Bypass flow (lpm),Sample temperature (°C),Ambient temperature (°C),ASC tube jacket temperature (°C),LED temperature (°C),Box temperature (°C),Sample RH (%),Span deviation,Mass concentration (μg/m³),Mass concentration (μg/m³),Mass concentration (μg/m³)
DateTimeUTC,F1_M11,P_M11,Q1_M11,Q2_M11,T1_M11,T2_M11,T3_M11,T4_M11,T5_M11,U1_M11,ZSPAN_M11,X0_M11,X2_M11,X1_M11
2022-07-25 12:00:00,,0829.0,5.01,0.00,31.1,29.0,00.0,39.9,32.4,33.4,0000.0,0010.82,0007.38,0006.72
2022-07-25 12:01:00,,0828.8,5.00,0.00,31.1,29.0,00.0,39.8,32.4,33.3,0000.0,0010.60,0007.17,0006.52
2022-07-25 12:02:00,,0829.1,4.99,0.00,31.1,29.1,00.0,39.8,32.4,33.2,0000.0,0010.70,0007.10,0006.43
2022-07-25 12:03:00,,0828.9,5.00,0.00,31.1,29.1,00.0,39.8,32.5,33.1,0000.0,0011.30,0007.07,0006.41
2022-07-25 12:04:00,,0828.8,5.00,0.00,31.0,29.1,00.0,39.8,32.5,33.0,0000.0,0011.99,0007.05,0006.40
2022-07-25 12:05:00,,0829.1,4.99,0.00,31.0,29.2,00.0,39.8,32.5,32.9,0000.0,0011.93,0007.01,0006.39
2022-07-25 12:06:00,,0829.1,5.00,0.00,31.0,29.2,00.0,39.8,32.5,32.9,0000.0,0011.94,0006.96,0006.36
2022-07-25 12:07:00,,0829.0,5.00,0.00,31.0,29.2,00.0,39.8,32.5,32.7,0000.0,0011.88,0006.94,0006.33
2022-07-25 12:08:00,,0829.1,5.01,0.00,31.0,29.3,00.0,39.8,32.5,32.5,0000.0,0011.72,0006.86,0006.25
2022-07-25 12:09:00,,0829.0,5.00,0.00,31.0,29.3,00.0,39.8,32.5,32.5,0000.0,0011.54,0006.74,0006.14
2022-07-25 12:10:00,,0828.9,5.00,0.00,31.0,29.3,00.0,39.8,32.5,32.6,0000.0,0011.35,0006.64,0006.06
2022-07-25 12:11:00,,0828.8,5.00,0.00,31.0,29.3,00.0,39.8,32.5,32.8,0000.0,0011.18,0006.55,0005.98
2022-07-25 12:12:00,,0829.0,5.00,0.00,31.0,29.3,00.0,39.8,32.5,33.0,0000.0,0011.05,0006.49,0005.93
2022-07-25 12:13:00,,0828.8,5.00,0.00,31.0,29.4,00.0,39.8,32.5,32.8,0000.0,0010.78,0006.44,0005.89
2022-07-25 12:14:00,,0829.1,5.01,0.00,31.0,29.4,00.0,39.8,32.6,32.8,0000.0,0010.09,0006.42,0005.86
2022-07-25 12:15:00,,0829.0,4.99,0.00,31.0,29.3,00.0,39.7,32.6,32.8,0000.0,0009.39,0006.40,0005.87
2022-07-25 12:16:00,,0828.6,4.99,0.00,31.0,28.7,00.0,39.7,32.5,32.9,0000.0,0009.33,0006.43,0005.90
2022-07-25 12:17:00,,0828.5,5.01,0.00,30.9,28.1,00.0,39.6,32.4,33.0,0000.0,0009.20,0006.45,0005.95
2022-07-25 12:18:00,,0828.5,5.00,0.00,30.9,27.9,00.0,39.5,32.3,33.2,0000.0,0009.26,0006.50,0005.98
2022-07-25 12:19:00,,0828.5,4.99,0.00,30.7,27.9,00.0,39.5,32.1,33.4,0000.0,0009.38,0006.57,0006.02
2022-07-25 12:20:00,,0828.6,5.01,0.00,30.7,27.9,00.0,39.5,32.1,33.5,0000.0,0009.41,0006.60,0006.07
2022-07-25 12:21:00,,0828.8,5.00,0.00,30.6,28.0,00.0,39.5,32.1,34.0,0000.0,0009.52,0006.66,0006.12
2022-07-25 12:22:00,,0828.8,5.00,0.00,30.6,28.2,00.0,39.4,32.1,34.1,0000.0,0009.58,0006.72,0006.20
2022-07-25 12:23:00,,0828.8,4.99,0.00,30.5,28.3,00.0,39.4,32.1,33.5,0000.0,0009.49,0006.70,0006.21
2022-07-25 12:24:00,,0828.9,5.01,0.00,30.5,28.4,00.0,39.4,32.1,33.4,0000.0,0009.53,0006.70,0006.21
2022-07-25 12:25:00,,0829.0,5.01,0.00,30.5,28.5,00.0,39.4,32.1,33.3,0000.0,0009.81,0006.72,0006.20
2022-07-25 12:26:00,,0829.1,4.99,0.00,30.5,28.6,00.0,39.4,32.1,33.3,0000.0,0009.80,0006.71,0006.18
2022-07-25 12:27:00,,0829.1,5.00,0.00,30.5,28.7,00.0,39.3,32.1,33.2,0000.0,0009.74,0006.66,0006.14
2022-07-25 12:28:00,,0829.0,5.00,0.00,30.5,28.7,00.0,39.3,32.1,33.2,0000.0,0009.74,0006.63,0006.10
2022-07-25 12:29:00,,0828.7,4.99,0.00,30.5,28.8,00.0,39.3,32.2,33.0,0000.0,0009.62,0006.56,0006.05
2022-07-25 12:30:00,,0829.0,5.01,0.00,30.5,28.8,00.0,39.3,32.2,33.0,0000.0,0009.63,0006.54,0006.01
2022-07-25 12:31:00,,0828.4,5.00,0.00,30.5,28.9,00.0,39.3,32.2,33.4,0000.0,0009.65,0006.54,0006.00
2022-07-25 12:32:00,,0828.4,4.99,0.00,30.5,28.9,00.0,39.3,32.2,33.4,0000.0,0009.57,0006.49,0005.97
2022-07-25 12:33:00,,0828.5,5.01,0.00,30.5,29.0,00.0,39.3,32.2,33.1,0000.0,0009.36,0006.37,0005.88
2022-07-25 12:34:00,,0828.4,4.99,0.00,30.5,29.0,00.0,39.3,32.2,32.8,0000.0,0009.34,0006.34,0005.82
2022-07-25 12:35:00,,0828.9,4.99,0.00,30.5,29.0,00.0,39.3,32.2,32.3,0000.0,0009.31,0006.30,0005.77
2022-07-25 12:36:00,,0828.7,5.00,0.00,30.5,29.1,00.0,39.3,32.3,33.1,0000.0,0008.97,0006.26,0005.76
2022-07-25 12:37:00,,0829.0,4.99,0.00,30.5,29.1,00.0,39.3,32.3,33.2,0000.0,0008.92,0006.27,0005.78
2022-07-25 12:38:00,,0829.1,5.00,0.00,30.5,29.1,00.0,39.3,32.3,33.2,0000.0,0009.10,0006.34,0005.80
2022-07-25 12:39:00,,0829.0,5.01,0.00,30.5,29.1,00.0,39.3,32.3,33.3,0000.0,0009.18,0006.37,0005.82
2022-07-25 12:40:00,,0829.0,5.00,0.00,30.5,29.1,00.0,39.3,32.3,32.7,0000.0,0009.21,0006.37,0005.83
2022-07-25 12:41:00,,0829.0,5.00,0.00,30.5,29.2,00.0,39.3,32.3,32.8,0000.0,0009.07,0006.31,0005.81
2022-07-25 12:42:00,,0828.9,4.99,0.00,30.5,29.2,00.0,39.3,32.3,32.7,0000.0,0009.08,0006.28,0005.80
2022-07-25 12:43:00,,0828.5,5.00,0.00,30.5,29.2,00.0,39.3,32.3,32.1,0000.0,0009.26,0006.26,0005.75
2022-07-25 12:44:00,,0828.5,4.99,0.00,30.5,29.2,00.0,39.3,32.3,31.8,0000.0,0009.29,0006.22,0005.70
2022-07-25 12:45:00,,0828.5,5.00,0.00,30.6,29.2,00.0,39.3,32.4,31.9,0000.0,0009.30,0006.18,0005.67
2022-07-25 12:46:00,,0828.5,5.00,0.00,30.6,29.2,00.0,39.3,32.4,31.9,0000.0,0009.28,0006.15,0005.66
2022-07-25 12:47:00,,0828.5,5.00,0.00,30.6,29.2,00.0,39.3,32.4,31.7,0000.0,0009.24,0006.11,0005.62
2022-07-25 12:48:00,,0828.5,5.00,0.00,30.6,28.7,00.0,39.3,32.4,31.5,0000.0,0009.06,0006.00,0005.53
2022-07-25 12:49:00,,0828.5,5.00,0.00,30.5,28.0,00.0,39.2,32.2,31.5,0000.0,0008.96,0005.90,0005.45
2022-07-25 12:50:00,,0828.5,5.01,0.00,30.5,27.5,00.0,39.2,32.1,31.8,0000.0,0008.85,0005.82,0005.38
2022-07-25 12:51:00,,0828.4,5.00,0.00,30.4,27.5,00.0,39.1,31.9,32.4,0000.0,0008.84,0005.77,0005.33
2022-07-25 12:52:00,,0828.3,5.01,0.00,30.3,27.5,00.0,39.1,31.9,33.3,0000.0,0008.83,0005.77,0005.33
2022-07-25 12:53:00,,0828.4,4.99,0.00,30.2,27.7,00.0,39.1,31.8,34.1,0000.0,0008.86,0005.80,0005.34
2022-07-25 12:54:00,,0828.5,5.01,0.00,30.2,27.8,00.0,39.1,31.8,34.8,0000.0,0008.84,0005.90,0005.44
2022-07-25 12:55:00,,0828.5,5.00,0.00,30.1,27.9,00.0,39.0,31.8,34.7,0000.0,0008.88,0005.96,0005.51
2022-07-25 12:56:00,,0828.5,4.99,0.00,30.1,28.1,00.0,39.0,31.9,34.9,0000.0,0008.89,0006.04,0005.60
2022-07-25 12:57:00,,0828.5,5.00,0.00,30.1,28.2,00.0,39.0,31.9,35.2,0000.0,0009.05,0006.16,0005.69
2022-07-25 12:58:00,,0828.5,5.01,0.00,30.4,28.3,00.0,39.0,32.0,35.0,0000.0,0009.28,0006.31,0005.79
2022-07-25 12:59:00,,0828.5,4.99,0.00,30.6,28.4,00.0,39.0,32.1,34.7,0000.0,0009.45,0006.44,0005.91
